Change the Weather History Date:

Thursday, February 16, 2012

  Actual Average Record
Temperature  
Mean Temperature 41 °F 38 °F  
Max Temperature 53 °F 49 °F 75 °F (1976)
Min Temperature 29 °F 27 °F -2 °F (1958)
Degree Days  
Heating Degree Days 24 27  
Month to date heating degree days 441 459  
Since 1 July heating degree days 2781 3163  
Cooling Degree Days 0 0  
Month to date cooling degree days 0 0  
Year to date cooling degree days 0 0  
Moisture  
Dew Point 40 °F    
Average Humidity 76    
Maximum Humidity 100    
Minimum Humidity 52    
Precipitation  
Precipitation 0.00 in 0.09 in 1.87 in (1990)
Month to date precipitation 2.23 1.59  
Year to date precipitation 4.81 4.31  
Sea Level Pressure  
Sea Level Pressure 30.15 in    
Wind  
Wind Speed 6 mph (NW)    
Max Wind Speed 15 mph    
Max Gust Speed 21 mph    
Visibility 6 miles    
Events Fog    
T = Trace of Precipitation, MM = Missing Value Source: NWS Daily Summary

Daily Weather History Graph

Daily Weather History Graph

Search for Another Location

Airport or City:

Trip Planner

Search our weather history database for the weather conditions in past years. The results will help you decide how hot, cold, wet, or windy it might be!

Date:

Astronomy

Feb. 16, 2012 Rise Set
Actual Time 6:55 AM CST 5:48 PM CST
Civil Twilight 6:28 AM CST 6:14 PM CST
Nautical Twilight 5:58 AM CST 6:45 PM CST
Astronomical Twilight 5:28 AM CST 7:15 PM CST
Moon 2:46 AM CST (2/16) 12:45 PM CST (2/16)
Length of Visible Light 11h 46m
Length of Day
10h 53m
Waning Crescent, 28% of the Moon is Illuminated
Feb 16
Waning Crescent
Feb 21
New
Feb 29
First Quarter
Mar 8
Full
Mar 14
Last Quarter

Hourly Weather History & Observations

Time (CST) Temp. Windchill Dew Point Humidity Pressure Visibility Wind Dir Wind Speed Gust Speed Precip Events Conditions
12:24 AM 44.6 °F 41.4 °F 44.6 °F 100% 29.98 in 1.0 mi WSW 5.8 mph - N/A   Mist
12:34 AM 44.6 °F 40.7 °F 44.6 °F 100% 29.98 in 1.5 mi WSW 6.9 mph - N/A   Overcast
12:53 AM 45.0 °F 41.2 °F 44.1 °F 97% 30.00 in 1.8 mi West 6.9 mph - N/A   Overcast
1:17 AM 44.6 °F 39.2 °F 44.6 °F 100% 30.00 in 1.0 mi West 10.4 mph 17.3 mph N/A   Mist
1:24 AM 44.6 °F 40.2 °F 44.6 °F 100% 30.01 in 0.8 mi West 8.1 mph 17.3 mph N/A   Mist
1:46 AM 44.6 °F 41.4 °F 44.6 °F 100% 30.02 in 1.0 mi West 5.8 mph - N/A   Mist
1:53 AM 45.0 °F 40.1 °F 44.1 °F 97% 30.03 in 1.0 mi WNW 9.2 mph - N/A   Mist
2:00 AM 44.6 °F 39.7 °F 44.6 °F 100% 30.02 in 1.5 mi WNW 9.2 mph - N/A   Overcast
2:24 AM 44.6 °F 41.4 °F 44.6 °F 100% 30.01 in 1.0 mi West 5.8 mph - N/A   Mist
2:33 AM 44.6 °F 42.2 °F 44.6 °F 100% 30.02 in 0.8 mi WNW 4.6 mph - N/A   Mist
2:53 AM 43.0 °F 38.2 °F 43.0 °F 100% 30.04 in 0.5 mi WNW 8.1 mph - N/A Fog Fog
3:30 AM 42.8 °F 38.0 °F 42.8 °F 100% 30.05 in 1.2 mi WNW 8.1 mph - N/A   Overcast
3:53 AM 43.0 °F 37.7 °F 43.0 °F 100% 30.08 in 2.5 mi WNW 9.2 mph - N/A   Overcast
4:00 AM 42.8 °F 38.6 °F 42.8 °F 100% 30.07 in 3.0 mi WNW 6.9 mph - N/A   Overcast
4:19 AM 42.8 °F 38.0 °F 42.8 °F 100% 30.09 in 2.0 mi West 8.1 mph - N/A   Overcast
4:29 AM 42.8 °F 38.6 °F 42.8 °F 100% 30.10 in 1.5 mi West 6.9 mph - N/A   Overcast
4:53 AM 43.0 °F 39.5 °F 43.0 °F 100% 30.12 in 1.8 mi West 5.8 mph - N/A   Overcast
5:00 AM 42.8 °F 40.1 °F 42.8 °F 100% 30.12 in 2.5 mi West 4.6 mph - N/A   Overcast
5:07 AM 42.8 °F 39.3 °F 42.8 °F 100% 30.11 in 4.0 mi West 5.8 mph - N/A   Overcast
5:24 AM 42.8 °F 40.1 °F 42.8 °F 100% 30.12 in 8.0 mi West 4.6 mph - N/A   Overcast
5:53 AM 44.1 °F 42.5 °F 43.0 °F 96% 30.14 in 6.0 mi WNW 3.5 mph - N/A   Overcast
6:21 AM 44.6 °F 40.7 °F 42.8 °F 93% 30.13 in 10.0 mi WNW 6.9 mph - N/A   Overcast
6:40 AM 44.6 °F 39.2 °F 42.8 °F 93% 30.15 in 9.0 mi NW 10.4 mph - N/A   Overcast
6:53 AM 44.1 °F 40.1 °F 43.0 °F 96% 30.16 in 9.0 mi NNW 6.9 mph - N/A   Overcast
7:22 AM 44.6 °F 40.2 °F 42.8 °F 93% 30.17 in 9.0 mi NW 8.1 mph - N/A   Overcast
7:34 AM 44.6 °F 41.4 °F 42.8 °F 93% 30.17 in 10.0 mi NW 5.8 mph - N/A   Overcast
7:46 AM 44.6 °F 40.7 °F 42.8 °F 93% 30.18 in 9.0 mi NW 6.9 mph - N/A   Overcast
7:53 AM 44.1 °F 39.0 °F 42.1 °F 93% 30.19 in 9.0 mi NW 9.2 mph - N/A   Overcast
8:36 AM 44.6 °F 40.7 °F 42.8 °F 93% 30.21 in 7.0 mi NW 6.9 mph - N/A   Overcast
8:53 AM 45.0 °F 39.7 °F 42.1 °F 90% 30.23 in 6.0 mi NNW 10.4 mph - N/A   Overcast
9:00 AM 44.6 °F 39.2 °F 41.0 °F 87% 30.22 in 5.0 mi NNW 10.4 mph 19.6 mph N/A   Overcast
9:53 AM 44.1 °F 38.6 °F 39.9 °F 85% 30.22 in 5.0 mi NNW 10.4 mph 17.3 mph N/A   Overcast
10:53 AM 48.0 °F - 39.9 °F 74% 30.24 in 6.0 mi NNW 9.2 mph - N/A   Haze
11:15 AM 46.4 °F 41.5 °F 39.2 °F 76% 30.26 in 6.0 mi NW 10.4 mph - N/A   Haze
11:53 AM 48.0 °F - 39.9 °F 74% 30.26 in 6.0 mi NNW 9.2 mph - N/A   Haze
12:12 PM 46.4 °F 42.9 °F 39.2 °F 76% 30.25 in 6.0 mi NW 6.9 mph - N/A   Haze
12:48 PM 50.0 °F - 39.2 °F 66% 30.23 in 7.0 mi NNW 11.5 mph - N/A   Scattered Clouds
12:53 PM 48.9 °F - 39.0 °F 69% 30.24 in 7.0 mi NW 8.1 mph 16.1 mph N/A   Scattered Clouds
1:53 PM 51.1 °F - 37.9 °F 61% 30.22 in 8.0 mi NNW 9.2 mph - N/A   Clear
2:53 PM 52.0 °F - 36.0 °F 54% 30.21 in 10.0 mi NW 11.5 mph - N/A   Clear
3:53 PM 52.0 °F - 35.1 °F 53% 30.20 in 10.0 mi North 9.2 mph - N/A   Clear
4:53 PM 50.0 °F - 33.1 °F 52% 30.21 in 10.0 mi NNW 6.9 mph - N/A   Clear
5:53 PM 46.0 °F 43.9 °F 33.1 °F 61% 30.22 in 10.0 mi NNW 4.6 mph - N/A   Clear
6:53 PM 43.0 °F 41.3 °F 33.1 °F 68% 30.24 in 10.0 mi North 3.5 mph - N/A   Clear
7:53 PM 37.0 °F - 30.9 °F 79% 30.24 in 10.0 mi Calm Calm - N/A   Clear
8:53 PM 34.0 °F - 28.9 °F 82% 30.25 in 9.0 mi Calm Calm - N/A   Clear
9:53 PM 32.0 °F - 30.0 °F 92% 30.26 in 8.0 mi Calm Calm - N/A   Clear
10:53 PM 30.0 °F - 28.0 °F 92% 30.25 in 7.0 mi Calm Calm - N/A   Clear
11:53 PM 32.0 °F - 28.0 °F 85% 30.24 in 5.0 mi Calm Calm - N/A   Clear